SCP
0 0 0 0 0 0 0 0 0 0 0 1 1 1 2 3 4 5 5 5 4 4 4 5 6 5 4 4 4 4 3 3 3 4 5 5 5 6 5 5 4 4 3 3
0 0 0 0 0 0 0 0 0 0 0 0 1 1 2 2 4 6 6 5 5 4 4 6 6 5 4 4 4 3 3 3 3 3 4 5 5 5 4 3 3 3 3 2
0 0 0 0 0 0 0 0 0 0 0 0 1 2 2 2 4 5 5 5 4 4 5 7 6 5 4 4 3 3 3 2 3 3 4 4 4 3 2 2 2 2 2 1
0 0 0 0 0 0 0 0 0 0 0 0 1 1 2 3 4 4 4 4 4 4 6 9 7 4 3 3 3 3 3 3 3 3 3 3 2 2 2 2 1 1 1 1
0 0 0 0 0 0 0 0 0 0 0 0 0 1 2 3 4 4 4 4 4 5 7 8 7 4 3 3 3 3 4 4 4 4 3 2 2 3 3 2 2 1 1 1
0 0 0 0 0 0 0 0 0 0 0 0 0 1 2 3 4 5 5 5 5 5 6 7 5 4 3 3 3 4 4 5 5 4 4 3 4 4 4 3 2 2 1 1
0 0 0 0 0 0 0 0 0 0 0 0 0 1 2 3 4 5 5 5 5 6 6 5 5 4 4 4 4 4 4 5 5 5 5 5 5 6 5 4 3 2 2 1
0 0 0 0 0 0 0 0 0 0 0 0 0 1 2 3 4 4 4 5 6 7 7 6 6 6 5 4 4 4 4 5 5 5 5 5 6 7 7 6 4 3 2 1
0 0 0 0 0 0 0 0 0 0 0 0 0 1 2 3 3 3 3 5 8 8 7 7 7 7 6 5 4 4 4 4 5 5 6 6 7 8 8 7 5 4 2 1
0 0 0 0 0 0 0 0 0 0 0 0 1 1 2 3 3 3 3 4 7 7 7 8 9 8 6 5 4 3 3 3 4 6 8 8 8 8 8 6 4 3 2 1
0 0 0 0 0 0 0 0 0 0 1 1 1 1 2 3 3 3 3 4 5 5 7 9 9 7 5 4 3 2 1 1 2 5 10 11 9 7 5 3 2 1 1 0
1 1 0 0 0 0 0 0 0 0 1 1 1 2 3 4 3 3 3 4 4 5 7 8 7 5 3 2 1 1 0 0 1 4 8 9 6 4 2 1 1 0 0 0
1 1 1 0 0 0 0 0 0 0 1 1 1 2 3 3 3 3 3 4 5 6 6 5 4 2 1 0 0 0 0 0 0 2 4 4 2 1 1 0 0 0 0 0
1 1 1 1 0 0 0 0 0 0 0 1 1 1 2 2 3 3 3 4 6 6 5 3 2 1 1 0 0 0 0 0 0 0 0 0 0 0 0 0 0 0 0 0
1 1 1 1 0 1 1 0 0 0 1 1 1 2 3 3 3 3 4 5 5 5 3 2 1 1 0 0 0 0 0 0 0 0 0 0 0 0 0 0 0 0 0 0
1 1 1 0 0 1 1 1 1 1 1 1 1 2 3 3 3 3 4 5 4 3 2 1 1 1 0 0 0 0 0 0 0 0 0 0 0 0 0 0 0 0 0 0
1 1 1 0 0 0 1 1 1 2 2 1 1 2 2 2 2 3 4 4 3 2 2 1 1 1 0 0 0 0 0 0 0 0 0 0 0 0 0 0 0 0 0 0
1 1 1 0 0 0 1 1 1 1 2 1 1 2 2 2 2 3 4 3 2 2 2 1 1 1 0 0 0 0 0 0 0 0 0 0 0 0 0 0 0 0 0 0
1 1 1 1 0 0 1 1 1 1 1 1 2 2 2 2 3 3 3 2 2 2 2 2 1 1 0 0 0 0 0 0 0 0 0 0 0 0 0 0 0 0 0 0
1 1 1 1 0 0 1 1 2 1 1 1 2 2 2 2 2 2 2 2 2 2 2 2 1 1 0 0 0 0 0 0 0 0 0 0 0 0 0 0 0 0 0 0
1 1 1 0 0 0 1 1 2 2 2 2 2 2 2 2 2 2 2 2 2 2 2 2 1 1 0 0 0 0 0 0 0 0 0 0 0 0 0 0 0 0 0 0
0 0 0 0 0 1 1 1 2 2 2 2 2 2 2 2 2 2 1 1 1 2 2 2 1 1 0 0 0 0 0 0 0 0 0 0 0 0 0 0 0 0 0 0
1 1 1 1 1 1 1 1 1 2 2 2 2 2 2 3 2 2 1 1 1 1 1 1 1 1 0 0 0 0 0 0 0 0 0 0 0 0 0 0 0 0 0 0
1 1 1 1 1 1 1 1 1 1 1 1 1 1 2 2 2 1 1 1 1 1 1 1 1 0 0 0 0 0 0 0 0 0 0 0 0 0 0 0 0 0 0 0
0 0 0 0 0 0 0 0 0 1 1 1 1 1 1 1 1 1 1 1 1 1 1 1 1 0 0 0 0 0 0 0 0 0 0 0 0 0 0 0 0 0 0 0
0 0 0 0 0 0 0 0 0 1 1 1 1 1 1 1 1 1 1 1 1 1 1 1 1 0 0 0 0 0 0 0 0 0 0 0 0 0 0 0 0 0 0 0
Wind_Speed
12 13 13 14 17 16 12 12 12 11 12 12 10 11 13 13 12 13 13 11 11 10 10 9 9 8 8 6 6 5 5 4 3 2 1 2 2 2 2 3 4 4 4 5
12 16 15 14 14 14 11 11 10 8 10 9 9 11 12 13 13 12 12 12 13 12 10 9 8 8 7 6 6 5 5 4 3 2 1 1 1 2 2 3 4 5 4 4
16 12 12 10 10 12 13 11 10 9 8 9 8 10 11 10 11 11 11 11 13 13 12 10 9 8 7 7 6 5 5 4 4 3 2 2 1 1 2 3 3 4 4 4
13 9 8 10 12 13 12 10 9 8 9 8 9 9 11 13 12 12 11 11 12 13 12 11 9 8 8 7 7 6 6 5 5 4 3 2 2 2 3 3 3 3 4 4
9 9 10 12 12 11 10 8 9 9 10 10 11 11 9 13 13 14 13 12 12 12 14 12 10 9 8 7 7 6 5 5 5 5 4 4 4 3 3 2 2 2 3 4
10 8 10 10 9 9 9 8 8 9 10 14 12 11 7 9 12 13 13 12 12 12 13 11 10 9 8 7 7 6 6 6 6 6 5 5 4 3 3 3 2 2 2 3
10 10 9 7 9 9 10 8 6 7 9 10 7 8 1 5 11 13 13 13 12 12 13 12 11 9 8 7 7 6 6 6 5 5 5 5 4 3 4 3 3 3 3 3
8 10 10 9 10 8 10 12 8 6 7 7 5 4 3 5 9 12 13 12 13 12 12 12 11 9 8 8 7 6 6 6 5 5 5 4 4 3 4 4 4 4 3 3
5 7 8 10 10 10 11 11 9 7 8 7 4 2 5 7 11 13 14 14 13 12 11 11 10 9 8 8 7 6 6 6 5 5 4 4 5 5 4 4 5 4 4 4
5 6 9 9 10 13 11 9 6 7 7 6 5 2 3 6 9 11 12 12 13 12 11 10 9 8 8 8 6 6 6 5 4 4 3 4 4 4 5 5 5 4 4 4
5 5 6 8 10 9 9 10 7 6 6 5 4 0 1 6 7 10 10 12 12 12 11 10 9 8 9 8 6 6 5 5 4 4 4 4 4 4 4 4 4 4 4 4
4 3 5 9 7 7 9 9 8 6 7 7 5 1 5 6 7 9 11 11 11 11 11 11 10 9 8 7 6 5 5 4 4 4 4 4 4 4 4 5 4 4 4 4
4 2 4 6 5 5 7 9 8 6 7 7 6 3 7 7 7 8 10 11 10 10 11 10 9 8 7 7 6 5 4 4 4 4 4 5 4 4 4 4 3 3 4 4
4 5 5 6 6 6 8 8 6 6 5 5 2 5 7 8 9 9 9 10 11 11 10 9 8 8 7 6 5 5 4 4 4 4 4 4 4 4 3 3 3 3 3 4
3 6 5 6 7 7 7 7 5 3 3 3 3 6 6 7 8 9 10 10 10 11 10 9 9 8 7 6 5 5 4 4 3 4 4 3 3 3 3 3 3 3 4 5
3 4 5 7 8 8 6 3 2 2 2 3 6 7 7 9 8 8 9 10 10 10 9 9 9 8 7 7 6 6 4 4 3 3 4 3 3 3 2 2 3 3 4 4
4 4 5 7 6 5 2 3 3 4 6 4 4 7 9 9 8 8 8 8 9 10 9 10 9 8 6 6 6 6 5 4 4 4 3 3 2 2 2 3 3 3 4 4
3 4 3 5 5 4 3 4 5 7 8 7 9 9 7 8 7 8 7 8 9 9 9 8 8 8 7 6 5 5 5 5 4 3 3 3 3 3 3 3 3 3 3 3
4 4 4 3 3 2 4 3 3 4 6 7 8 8 8 9 9 7 7 7 8 9 9 8 8 8 7 6 6 5 5 5 4 4 3 3 2 3 2 3 3 2 1 1
5 4 4 3 3 1 3 4 3 4 5 6 6 6 7 7 5 5 7 8 9 9 8 8 8 8 7 6 5 4 4 4 4 3 3 3 2 3 3 3 2 1 0 0
5 5 5 3 1 3 5 4 1 0 4 5 6 5 5 4 4 9 10 9 9 9 9 9 9 8 7 6 5 4 4 4 4 3 3 3 2 2 2 2 1 0 1 0
1 2 1 2 1 3 5 4 5 5 5 6 6 7 8 9 10 11 10 10 10 10 10 9 8 7 6 6 5 4 3 3 3 3 3 3 2 1 2 2 1 1 1 1
4 4 4 5 5 6 8 8 7 5 6 6 7 8 9 9 10 10 10 10 10 9 9 8 8 7 6 6 5 5 4 3 3 3 2 2 2 1 2 2 2 2 2 2
4 3 4 6 7 8 9 8 7 6 6 7 9 9 8 9 10 10 9 9 9 9 9 8 8 8 7 6 5 5 5 4 4 3 3 2 2 2 2 1 1 1 1 1
3 3 5 7 6 7 8 7 7 7 8 9 9 9 8 9 10 10 9 9 9 8 8 7 7 7 8 7 6 6 5 4 3 3 3 3 3 2 2 1 1 2 2 2
5 4 2 4 4 5 7 6 7 7 7 8 8 9 9 9 9 10 9 8 8 8 8 7 7 7 7 7 6 6 5 4 4 3 3 3 3 3 3 3 2 1 2 2
Wind_Direction
203 223 224 214 218 227 225 224 217 197 180 198 191 166 173 173 171 164 162 162 144 134 131 125 121 114 108 98 89 81 71 59 49 45 49 81 72 70 67 65 51 38 23 9
205 226 231 222 219 238 248 235 220 191 175 198 190 183 185 179 181 173 167 162 148 145 139 131 123 119 114 105 92 81 71 56 39 25 25 69 82 75 76 59 49 37 28 13
220 218 217 228 224 233 246 239 223 193 172 209 205 203 190 188 177 172 170 162 154 152 147 139 132 126 115 105 94 82 69 55 36 23 46 69 82 82 80 67 54 35 22 23
229 227 202 218 228 229 239 236 237 200 199 217 217 230 200 188 185 180 175 167 160 152 146 141 135 129 119 108 95 82 70 57 39 31 40 56 65 68 60 53 60 46 25 24
226 205 211 220 225 229 243 244 244 231 227 237 224 241 214 184 189 187 179 171 163 153 146 141 135 125 116 109 100 91 79 64 51 45 44 55 61 61 61 57 62 58 41 30
246 214 215 223 228 229 249 248 245 244 241 243 241 244 232 187 192 186 177 167 155 146 137 132 129 123 117 110 104 97 84 72 62 56 52 56 62 59 60 57 43 54 48 35
226 220 218 221 222 217 234 235 232 238 242 249 258 247 196 168 171 171 165 155 150 140 135 136 134 131 123 113 105 95 89 78 67 61 58 54 57 66 59 55 46 38 41 41
224 209 208 215 224 220 227 238 231 236 260 269 262 244 121 101 122 132 137 143 140 140 138 138 138 133 126 118 109 102 93 83 72 66 58 45 39 58 56 42 39 42 34 32
258 232 215 214 221 231 230 239 245 250 264 267 245 158 119 107 116 127 134 139 139 136 136 137 132 126 120 114 107 102 95 87 81 78 75 64 53 54 55 49 43 39 25 22
257 254 232 226 222 230 237 241 251 257 270 275 261 215 162 157 144 138 137 139 137 136 136 132 126 122 115 111 104 96 95 94 85 79 75 80 70 62 57 56 51 39 30 20
250 259 232 227 229 231 238 242 248 261 265 273 270 247 136 154 151 144 142 144 142 141 138 132 129 123 116 112 107 102 98 94 88 79 72 73 70 66 61 56 48 35 26 19
254 273 255 242 237 245 242 251 248 256 271 277 281 121 95 113 130 136 136 140 140 138 136 134 130 124 120 117 112 107 103 98 95 98 94 84 75 68 62 56 45 34 25 17
307 265 255 247 225 234 249 249 247 252 270 280 284 116 106 119 127 126 131 133 132 134 134 134 133 129 128 125 119 113 106 95 90 101 103 92 80 69 61 51 38 31 31 19
289 263 253 249 254 252 256 263 262 265 272 285 300 134 135 131 130 128 130 135 138 141 142 140 136 134 131 128 126 122 113 106 100 89 90 88 83 79 68 55 40 32 29 32
263 269 270 268 264 258 260 271 276 288 305 319 97 124 140 134 135 135 136 138 141 145 146 144 143 140 139 142 138 129 117 103 95 102 104 96 93 85 74 61 51 40 30 38
211 271 274 264 250 249 258 271 296 323 356 102 115 102 116 119 124 133 139 146 149 149 147 146 148 147 151 151 143 132 125 125 120 117 117 112 101 93 88 76 59 52 42 34
231 246 263 267 260 241 267 13 22 48 46 54 86 117 131 129 132 140 145 148 155 154 153 152 152 152 150 146 142 141 141 138 132 133 128 123 118 104 84 73 67 57 51 47
255 266 267 270 277 251 91 49 60 75 61 72 97 119 127 121 122 128 137 147 149 151 151 152 150 146 142 140 138 139 144 141 138 138 130 123 114 97 78 72 66 58 53 48
215 248 261 258 244 162 114 65 55 89 85 79 102 114 120 124 125 121 131 136 139 145 145 143 142 139 137 139 143 147 144 145 147 141 129 124 117 105 92 84 76 63 51 54
199 226 255 269 267 234 88 56 53 116 108 88 104 121 137 152 153 134 129 128 131 133 134 136 137 136 138 144 148 153 157 151 149 143 138 120 104 100 90 90 93 88 21 360
210 222 239 254 238 76 36 13 334 250 103 100 112 120 133 136 96 123 128 125 126 128 132 137 139 139 143 147 151 160 157 154 155 143 128 116 111 124 126 120 121 178 275 10
223 277 285 281 183 80 21 37 49 78 98 99 104 108 105 104 111 123 128 128 131 134 139 140 139 139 144 146 151 150 146 144 137 128 126 124 139 181 130 136 174 222 237 226
49 30 27 45 79 88 67 75 87 95 97 104 110 110 115 122 129 130 132 134 138 144 143 143 143 144 148 154 158 154 147 142 132 134 136 137 146 134 136 181 201 221 231 242
95 84 100 99 102 100 91 89 89 91 99 107 111 117 126 129 132 134 137 139 142 145 145 148 152 153 151 154 157 149 147 151 154 155 157 163 185 189 183 228 241 244 312 321
67 82 93 102 114 111 95 92 93 96 103 106 112 119 124 130 136 138 140 142 144 146 149 154 157 155 152 154 156 158 159 166 167 170 179 199 210 181 171 145 9 11 40 42
43 57 105 121 123 112 112 107 106 107 109 113 119 122 129 135 136 138 140 143 147 149 151 155 157 160 157 156 160 162 164 171 173 189 204 217 216 201 194 184 169 117 165 159